Regional Weather Roundup
Issued by NWS

Home | Current Version | Previous Version | Graphics & Text | Print | Product List | Glossary On
Versions: 1 2 3 4 5 6 7 8 9 10 11 12 13 14 15 16 17 18 19 20 21 22 23 24 25 26 27 28 29 30 31 32 33 34 35 36 37 38 39 40 41 42 43 44 45 46 47 48 49 50
000
ASUS43 KLOT 240308
RWRIL

ILLINOIS REGIONAL WEATHER ROUNDUP
NATIONAL WEATHER SERVICE CHICAGO/ROMEOVILLE IL
1000 PM CDT SAT JUL 23 2016

NOTE: "FAIR" INDICATES FEW OR NO CLOUDS BELOW 12,000 FEET WITH NO
SIGNIFICANT WEATHER AND/OR OBSTRUCTIONS TO VISIBILITY.

* THESE STATIONS ARE NOT UNDER NWS QUALITY CONTROL. THEY ALSO MAY NOT
  REPORT WEATHER SUCH AS PRECIPITATION OR FOG.

ILZ001-002-007-009-015-016-024-240400-
NORTHWEST ILLINOIS

CITY           SKY/WX    TMP DP  RH WIND       PRES   REMARKS
MOLINE         CLOUDY    81  71  71 SE13      29.91R HX  85
STERLING*      LGT RAIN  73  71  93 SE5       29.94F
SAVANNA*       CLOUDY    71  69  96 SE6       29.91S
$$

ILZ003-004-008-010-011-017-018-240400-
NORTH CENTRAL ILLINOIS

CITY           SKY/WX    TMP DP  RH WIND       PRES   REMARKS
ROCKFORD       TSTM      73  70  90 SE3       29.94F
FREEPORT*      CLOUDY    71  70  97 E3        29.94F
ROCHELLE*      RAIN      71  70  98 CALM      29.96F
DE KALB*       TSTM      70  69  96 E6        29.96F
$$

ILZ005-006-012>014-019>023-240400-
NORTHEAST ILLINOIS

CITY           SKY/WX    TMP DP  RH WIND       PRES   REMARKS
CHICAGO-OHARE  TSTM      73  69  87 N10       29.99R
CHICAGO-MIDWAY CLOUDY    78  69  73 N6        29.96R HX  80
AURORA         TSTM      72  70  93 CALM      30.00R VSB 3/4
LANSING*       CLOUDY    74  69  82 SE6       29.95F
JOLIET*        CLOUDY    77  73  85 N6        29.98R
WAUKEGAN       LGT RAIN  71  69  93 S7        29.97F
DUPAGE AIRPORT TSTM      71  69  93 E7        29.98S FOG
WHEELING       TSTM      71  69  93 N10       30.01R FOG
MORRIS*        CLOUDY    77  71  84 CALM      29.95S
ROMEOVILLE*    CLOUDY    74  69  84 N7        29.99R THUNDER
NORTHERLY ISL    N/A     71  68  90 S5          N/A
$$

LMZ740>746-240400-
SOUTHERN LAKE MICHIGAN

STATION/POSITION SKY/WX   TEMP    WIND        PRES    VSBY  WAVE
                          AIR SEA DIR/SP/G                  HT/PER
                          (F)     (DEG/KT/KT) (MB)    (MI)  (FT/S)
SOUTHERN BUOY              76 75  230/ 10/ 14 1014.4R         0
WILMETTE HARBOR            67 61  360/ 12/ 17   N/A           2/ 3
HARRISON CRIB              76     120/ 17/ 18   N/A
BURNHAM HARBOR             73     320/  8/ 12   N/A
CALUMET HARBOR             74                   N/A
BURNS HARBOR               73      90/ 14/ 21 1015.2S
MICHIGAN CITY              73      70/ 17/ 19   N/A
MICHIGAN CITY 6N           76 73  140/ 12/ 16   N/A           3/ 5
ST. JOSEPH                 76 77  110/ 10/ 14 1012.8F         2/ 2
$$

ILZ025>027-034>036-040-047-049-050-058-095>099-240400-
WEST-CENTRAL ILLINOIS

CITY           SKY/WX    TMP DP  RH WIND       PRES   REMARKS
QUINCY         CLOUDY    83  78  85 SE6       29.91R HX  93
GALESBURG*     CLOUDY    82  78  89 CALM      29.93R HX  90
MACOMB*        CLEAR     81  78  92 SE8       29.94R HX  89
JACKSONVILLE*  PTCLDY    83  76  80 SE7       29.93R HX  91
PITTSFIELD*    MOCLDY    82  78  88 SE3       29.94R HX  90
$$

ILZ028>032-037-038-041>044-048-051>054-059>061-240400-
CENTRAL ILLINOIS

CITY           SKY/WX    TMP DP  RH WIND       PRES   REMARKS
PONTIAC        CLOUDY    80  79  99 SE5       29.96R HX  86
BLOOMINGTON    PTCLDY    80  76  87 S7        29.98R HX  86
DECATUR        CLEAR     82  76  81 SE7       29.96R HX  89
PEORIA         PTCLDY    84  78  82 S9        29.94R HX  95
LACON*         CLOUDY    82  77  84 CALM      29.94R HX  90
LINCOLN*       CLEAR     81  79  95 CALM      29.95R HX  89
SPRINGFIELD    CLEAR     84  76  76 S7        29.94R HX  93
TAYLORVILLE    CLEAR     80  77  91 NW7       29.95S HX  87
$$

ILZ033-039-045-046-055>057-062-063-240400-
EAST-CENTRAL ILLINOIS

CITY           SKY/WX    TMP DP  RH WIND       PRES   REMARKS
CHAMPAIGN      CLEAR     80  76  87 SE3       29.97S HX  86
MATTOON        CLEAR     79  75  87 SE3       29.97R HX  83
PARIS*         CLEAR     77  77 100 CALM      29.99R FOG
$$

ILZ079-100>102-240400-
SOUTHWEST ILLINOIS

CITY           SKY/WX    TMP DP  RH WIND       PRES   REMARKS
ALTON          PTCLDY    81  75  83 SE3       29.95R HX  86
BELLEVILLE     CLEAR     82  79  90 CALM      29.94R HX  91
CAHOKIA*       CLEAR     83  76  79 S3        29.93S HX  91
SPARTA*        CLEAR     82  76  83 SE5       29.96S HX  89
$$

ILZ064>066-069>071-074>076-080>082-084>086-088>090-092>094-240400-
SOUTH-CENTRAL ILLINOIS

CITY           SKY/WX    TMP DP  RH WIND       PRES   REMARKS
CARBONDALE     CLEAR     82  77  84 CALM      29.97R HX  90
CAIRO*         CLEAR     80  78  94 CALM      29.97R HX  86
EFFINGHAM*     CLEAR     80  79  98 SE3       29.99R FOG     HX  86
MARION         CLEAR     82  79  89 SE3       29.99R HX  93
MT. VERNON     CLEAR     82  73  74 S6        29.97S HX  88
CENTRALIA*     CLEAR     81  77  88 SE5       29.96R HX  88
SALEM*         CLEAR     83  75  78 SE5       29.96R HX  90
METROPOLIS*    CLOUDY    79  77  95 CALM      29.99R HX  82
$$

ILZ067-068-072-073-078-083-087-091-240400-
SOUTHEAST ILLINOIS

CITY           SKY/WX    TMP DP  RH WIND       PRES   REMARKS
LAWRENCEVILLE  CLOUDY    80  78  94 S5        29.98R FOG     HX  88
FLORA*         CLOUDY    80  77  90 S5        29.97R HX  86
FAIRFIELD*     PTCLDY    81  77  89 CALM      29.96R HX  88
HARRISBURG*    CLEAR     80  79  96 CALM      29.98R HX  89
ROBINSON*      CLOUDY    76  75  97 CALM      29.99R FOG
CARMI*         CLEAR     79  79  99 CALM      29.98R FOG     HX  84
$$

ABBREVIATIONS USED IN REMARKS
   TC - TEMPERATURE IN CELSIUS
  WCI - WIND CHILL INDEX
   HX - HEAT INDEX
  VSB - VISIBILITY
$$




USA.gov is the U.S. government's official web portal to all federal, state and local government web resources and services.